COSMOS 991

导读

COSMOS 991(宇宙991)是苏联(归属独联体CIS)“宇宙”系列卫星,于1978年2月28日发射入轨。“宇宙”系列是苏联/俄罗斯规模最大的多任务卫星家族,涵盖应用、科学与技术试验卫星,该编号卫星延续系列命名传统,是冷战时期苏联航天发展进程中,卫星技术探索与空间应用布局的组成部分,见证了早期航天活动发展。

基本信息
目录编号:
10692
目录名称:
COSMOS 991
国际标识:
1978-022A
轨道中心:
EARTH
卫星名称:
COSMOS 991
卫星全名:
--
卫星状态:
在轨 (已飞行17645 天)
发射日期:
1978-02-28 UTC
国别 :
俄罗斯(独联体) (CIS)
星等 :
--
轨道信息
数据来源 国际轨道数据 AOE轨道数据
星历时间 2026-06-20T15:04:24+0800
1天前
查看轨道信息
2026-06-17T03:00:00+0800
4天前
查看轨道信息
半长轴 7354.211km 7354.222km
偏心率 0.0034984 0.0035522
轨道倾角 82.988° 82.988°
近地点辐角 280.161° 291.018°
升交点赤经 244.375° 246.961°
平近点角 145.050° 64.080°
近地点 950.346km 949.961km
远地点 1001.802km 1002.209km
周期 104.608分钟 104.608分钟
每日圈数 13.765712 13.76568
详细信息
使用方式:
暂无
2D轨道图
3D轨道图
轨道高度分析图
轨道倾角分析图
轨道综合分析图
查看轨道综合分析图